Weather History for KLDM - February, 2013

Change the Weather History Date:

Wednesday, February 27, 2013

  Actual Average Record
Temperature  
Mean Temperature 34 °F -  
Max Temperature 37 °F 37 °F 51 °F (1976)
Min Temperature 32 °F 19 °F -7 °F (2015)
Degree Days  
Heating Degree Days 30    
Moisture  
Dew Point 31 °F    
Average Humidity 88    
Maximum Humidity 93    
Minimum Humidity 82    
Precipitation  
Precipitation 0.12 in - - ()
Sea Level Pressure  
Sea Level Pressure 29.60 in    
Wind  
Wind Speed 8 mph (NNE)    
Max Wind Speed 12 mph    
Max Gust Speed 18 mph    
Visibility 5 miles    
Events Rain , Snow    
Averages and records for this station are not official NWS values.
T = Trace of Precipitation, MM = Missing Value Source: NWS Daily Summary

Daily Weather History Graph

Daily Weather History Graph

Search for Another Location

Airport or City:

Trip Planner

Search our weather history database for the weather conditions in past years. The results will help you decide how hot, cold, wet, or windy it might be!

Date:

Astronomy

Feb. 27, 2013 Rise Set
Actual Time 7:25 AM EST 6:31 PM EST
Civil Twilight 6:56 AM EST 7:00 PM EST
Nautical Twilight 6:23 AM EST 7:34 PM EST
Astronomical Twilight 5:49 AM EST 8:07 PM EST
Moon 8:59 PM EST (2/27) 7:54 AM EST (2/27)
Length of Visible Light 12h 04m
Length of Day
11h 06m
Waning Gibbous, 96% of the Moon is Illuminated
Feb 27
Waning Gibbous
Mar 4
Last Quarter
Mar 11
New
Mar 19
First Quarter
Mar 27
Full

Hourly Weather History & Observations

Time (EST) Temp. Windchill Dew Point Humidity Pressure Visibility Wind Dir Wind Speed Gust Speed Precip Events Conditions
12:08 AM 32.5 °F 24.8 °F 29.3 °F 88% 29.62 in 2.5 mi NNE 9.2 mph 16.1 mph N/A Snow Light Snow
12:41 AM 32.0 °F 23.6 °F 28.4 °F 87% 29.61 in 1.5 mi NNE 10.4 mph 18.4 mph N/A Snow Light Snow
12:57 AM 32.0 °F 23.0 °F 30.2 °F 93% 29.61 in 1.8 mi NE 11.5 mph - N/A Snow Light Snow
1:17 AM 32.0 °F 24.2 °F 30.2 °F 93% 29.60 in 1.8 mi NE 9.2 mph - N/A Snow Light Snow
1:34 AM 32.5 °F 24.2 °F 29.7 °F 89% 29.60 in 2.0 mi NE 10.4 mph - N/A Snow Light Snow
1:36 AM 32.0 °F 24.8 °F 30.2 °F 93% 29.59 in 2.0 mi NNE 8.1 mph - N/A Snow Light Snow
1:55 AM 32.5 °F 26.2 °F 29.7 °F 89% 29.59 in 1.5 mi NNE 6.9 mph 16.1 mph N/A Snow Light Snow
2:15 AM 32.5 °F 25.5 °F 29.7 °F 89% 29.59 in 1.8 mi NNE 8.1 mph - N/A Snow Light Snow
2:35 AM 32.5 °F 26.2 °F 29.7 °F 89% 29.58 in 1.5 mi NNE 6.9 mph - N/A Snow Light Snow
2:55 AM 32.5 °F 25.5 °F 29.7 °F 89% 29.57 in 2.5 mi NNE 8.1 mph - N/A Snow Light Snow
3:15 AM 32.5 °F 24.2 °F 29.7 °F 89% 29.57 in 2.5 mi NNE 10.4 mph - N/A Snow Light Snow
3:35 AM 32.5 °F 25.5 °F 29.7 °F 89% 29.56 in 3.0 mi NNE 8.1 mph - N/A Snow Light Snow
3:55 AM 32.5 °F 26.2 °F 29.7 °F 89% 29.56 in 2.5 mi NNE 6.9 mph - N/A Snow Light Snow
4:15 AM 32.5 °F 27.1 °F 29.7 °F 89% 29.55 in 2.5 mi NNE 5.8 mph - N/A Snow Light Snow
4:35 AM 32.5 °F 28.1 °F 29.7 °F 89% 29.55 in 2.0 mi NNE 4.6 mph - N/A Snow Light Snow
4:55 AM 32.5 °F 25.5 °F 29.8 °F 90% 29.55 in 2.0 mi NNE 8.1 mph - N/A Snow Light Snow
5:15 AM 32.5 °F 26.2 °F 29.8 °F 90% 29.55 in 1.8 mi NNE 6.9 mph - N/A Snow Light Snow
5:55 AM 32.5 °F 25.5 °F 29.8 °F 90% 29.55 in 1.5 mi NNE 8.1 mph - N/A Snow Light Snow
6:14 AM 32.5 °F 25.5 °F 29.8 °F 90% 29.55 in 1.8 mi NNE 8.1 mph - N/A Snow Light Snow
6:35 AM 32.5 °F 25.5 °F 29.8 °F 90% 29.55 in 2.0 mi NNE 8.1 mph - N/A Snow Light Snow
6:55 AM 32.5 °F 26.2 °F 29.8 °F 90% 29.55 in 2.5 mi NNE 6.9 mph - N/A Snow Light Snow
7:14 AM 32.5 °F 24.8 °F 29.8 °F 90% 29.55 in 2.0 mi NNE 9.2 mph - N/A Snow Light Snow
7:35 AM 32.5 °F 26.2 °F 29.8 °F 90% 29.56 in 1.8 mi NNE 6.9 mph - N/A Snow Light Snow
7:55 AM 32.5 °F 26.2 °F 29.8 °F 90% 29.56 in 1.2 mi NNE 6.9 mph - N/A Snow Light Snow
8:14 AM 32.5 °F 25.5 °F 29.8 °F 90% 29.56 in 1.8 mi NE 8.1 mph - N/A Snow Light Snow
8:35 AM 32.5 °F 26.2 °F 29.7 °F 89% 29.57 in 1.8 mi NNE 6.9 mph - N/A Snow Light Snow
8:55 AM 33.1 °F 26.9 °F 30.4 °F 90% 29.57 in 1.8 mi NNE 6.9 mph - N/A Snow Light Snow
9:14 AM 35.1 °F 27.9 °F 32.0 °F 89% 29.57 in 2.5 mi NE 9.2 mph - N/A Snow Light Snow
9:35 AM 35.1 °F 27.4 °F 32.0 °F 89% 29.57 in 2.0 mi NE 10.4 mph - N/A Snow Light Snow
10:15 AM 35.1 °F 30.1 °F 32.0 °F 89% 29.57 in 2.0 mi NNE 5.8 mph - 0.01 in Snow Light Snow
10:35 AM 35.1 °F 27.9 °F 32.0 °F 89% 29.57 in 4.0 mi NNE 9.2 mph - 0.01 in Snow Light Snow
10:54 AM 35.1 °F 29.3 °F 31.8 °F 88% 29.57 in 7.0 mi NNE 6.9 mph - 0.01 in Snow Light Snow
11:15 AM 35.1 °F 30.1 °F 31.8 °F 88% 29.57 in 3.0 mi NNE 5.8 mph - 0.04 in Snow Light Snow
11:34 AM 35.1 °F 29.3 °F 31.6 °F 87% 29.57 in 7.0 mi NNE 6.9 mph - 0.06 in Snow Light Snow
11:55 AM 35.1 °F 29.3 °F 31.1 °F 85% 29.57 in 10.0 mi NE 6.9 mph - 0.09 in   Overcast
12:15 PM 36.5 °F 31.8 °F 32.0 °F 84% 29.57 in 10.0 mi NE 5.8 mph - 0.01 in   Overcast
12:34 PM 36.5 °F 30.3 °F 32.0 °F 84% 29.57 in 10.0 mi NNE 8.1 mph - 0.01 in   Overcast
1:15 PM 36.3 °F 30.8 °F 32.0 °F 84% 29.57 in 10.0 mi NNE 6.9 mph - N/A   Overcast
1:34 PM 36.1 °F 31.4 °F 32.0 °F 85% 29.57 in 10.0 mi NNE 5.8 mph - N/A   Overcast
1:55 PM 36.5 °F 31.8 °F 32.0 °F 84% 29.56 in 10.0 mi NNE 5.8 mph - N/A   Overcast
2:14 PM 37.0 °F 31.0 °F 32.4 °F 83% 29.57 in 10.0 mi NNE 8.1 mph - N/A   Overcast
2:35 PM 36.5 °F 31.0 °F 31.8 °F 83% 29.57 in 10.0 mi NNE 6.9 mph - N/A   Overcast
2:55 PM 36.1 °F 29.9 °F 32.0 °F 85% 29.57 in 10.0 mi North 8.1 mph - N/A   Overcast
3:14 PM 36.1 °F 29.9 °F 32.0 °F 85% 29.57 in 10.0 mi North 8.1 mph - N/A   Overcast
3:35 PM 35.1 °F 28.6 °F 30.9 °F 85% 29.57 in 10.0 mi North 8.1 mph - N/A   Overcast
3:54 PM 35.1 °F 29.3 °F 30.7 °F 84% 29.58 in 10.0 mi North 6.9 mph - N/A   Overcast
4:15 PM 35.1 °F 28.6 °F 30.2 °F 82% 29.58 in 7.0 mi North 8.1 mph - N/A Rain Light Rain
4:35 PM 35.1 °F 29.3 °F 30.7 °F 84% 29.59 in 7.0 mi NNE 6.9 mph - N/A Rain Light Rain
4:54 PM 35.1 °F 29.3 °F 30.9 °F 85% 29.60 in 5.0 mi NNE 6.9 mph - N/A Snow Light Snow
5:15 PM 35.1 °F 29.3 °F 31.1 °F 85% 29.60 in 7.0 mi North 6.9 mph - N/A Snow Light Snow
5:35 PM 35.1 °F 28.6 °F 30.9 °F 85% 29.61 in 4.0 mi NNE 8.1 mph - N/A Snow Light Snow
5:54 PM 35.1 °F 27.4 °F 31.1 °F 85% 29.61 in 4.0 mi NNE 10.4 mph - N/A Snow Light Snow
6:15 PM 35.1 °F 28.6 °F 31.1 °F 85% 29.62 in 7.0 mi NNE 8.1 mph - N/A Snow Light Snow
6:34 PM 35.1 °F 30.1 °F 31.5 °F 87% 29.63 in 5.0 mi NNE 5.8 mph - N/A Snow Light Snow
6:55 PM 35.1 °F 31.0 °F 31.8 °F 88% 29.64 in 5.0 mi North 4.6 mph - 0.01 in Snow Light Snow
7:15 PM 35.1 °F 30.1 °F 32.0 °F 89% 29.65 in 5.0 mi North 5.8 mph - N/A Snow Light Snow
7:34 PM 35.1 °F 30.1 °F 31.6 °F 87% 29.65 in 10.0 mi NNE 5.8 mph - N/A Snow Light Snow
7:55 PM 35.1 °F 27.4 °F 31.5 °F 87% 29.65 in 5.0 mi NNE 10.4 mph - N/A Snow Light Snow
8:15 PM 35.1 °F 31.0 °F 31.6 °F 87% 29.65 in 5.0 mi NNE 4.6 mph - N/A Snow Light Snow
8:34 PM 35.1 °F 29.3 °F 31.8 °F 88% 29.66 in 3.0 mi NNE 6.9 mph - N/A Snow Light Snow
8:55 PM 35.1 °F 30.1 °F 32.0 °F 89% 29.66 in 3.0 mi North 5.8 mph - N/A Snow Light Snow
9:15 PM 35.1 °F 30.1 °F 32.0 °F 89% 29.67 in 4.0 mi North 5.8 mph - N/A Snow Light Snow
9:34 PM 34.3 °F 28.4 °F 31.6 °F 90% 29.67 in 5.0 mi North 6.9 mph - N/A Snow Light Snow
9:55 PM 34.9 °F 28.3 °F 32.0 °F 89% 29.67 in 5.0 mi North 8.1 mph - N/A Snow Light Snow
10:15 PM 34.3 °F 28.4 °F 31.6 °F 90% 29.67 in 10.0 mi North 6.9 mph - N/A   Overcast
10:34 PM 34.0 °F 27.2 °F 31.3 °F 90% 29.67 in 5.0 mi North 8.1 mph - N/A Snow Light Snow
10:55 PM 34.7 °F 29.6 °F 31.8 °F 89% 29.67 in 7.0 mi NNE 5.8 mph - N/A Snow Light Snow
11:14 PM 34.0 °F 28.0 °F 31.1 °F 89% 29.68 in 7.0 mi North 6.9 mph - N/A Snow Light Snow
11:35 PM 33.8 °F 28.6 °F 30.9 °F 89% 29.68 in 5.0 mi North 5.8 mph - N/A Snow Light Snow
11:55 PM 32.7 °F 27.3 °F 29.5 °F 88% 29.67 in 7.0 mi North 5.8 mph - N/A Snow Light Snow